Location: Pradons
(44.4746°N, 4.3578°E)
Time: 22:36:06
(UTC+00:00)

Cosmos 2184 Rocket - Pass Details

Date: 09 April 2020
Orbit: 958 x 1003 km, 82.9° (Epoch: 05 June)

Event Time Altitude Azimuth Distance (km) Brightness Sun altitude
Rises 19:00:39 0° 351° (N) 3,705 7.4 -7.8°
Reaches altitude 10° 19:03:12 10° 352° (N) 2,746 6.8 -8.2°
Maximum altitude 19:09:30 88° 79° (E) 981 4.0 -9.2°
Drops below altitude 10° 19:15:42 10° 173° (S) 2,698 6.0 -10.3°
Sets 19:18:11 0° 174° (S) 3,636 6.7 -10.7°
